Regional Weather Roundup
Issued by NWS

Home | Current Version | Previous Version | Graphics & Text | Print | Product List | Glossary On
Versions: 1 2 3 4 5 6 7 8 9 10 11 12 13 14 15 16 17 18 19 20 21 22 23 24 25 26 27 28 29 30 31 32 33 34 35 36 37 38 39 40 41 42 43 44 45 46 47 48 49 50
232
ASUS45 KCYS 270610
RWRWY

WYOMING REGIONAL WEATHER ROUNDUP
NATIONAL WEATHER SERVICE CHEYENNE WY
1100 PM MST SUN FEB 26 2017

NOTE:  "FAIR" INDICATES FEW OR NO CLOUDS BELOW 12,000 FEET
WITH NO SIGNIFICANT WEATHER AND/OR OBSTRUCTIONS TO VISIBILITY.

WYZ001-270700-
YELLOWSTONE NATIONAL PARK

CITY           SKY/WX    TMP DP  RH WIND       PRES   REMARKS
LK YELLOWSTONE   N/A     10   8  92 CALM      29.55F
6HR MIN TEMP:  10; 6HR MAX TEMP:  13; 6HR PCP:  0.07;

W YELLOWSTONE  NOT AVBL

$$
WYZ002>013-054>058-071-098>099-270700-
NORTHERN WYOMING

CITY           SKY/WX    TMP DP  RH WIND       PRES   REMARKS
JACKSON        CLOUDY    18  16  93 SW14      29.61F WCI   4
CODY           FAIR      20   7  57 SE9       29.59F WCI   9
GREYBULL       FAIR      27  13  55 SE7       29.64F WCI  19
6HR MIN TEMP:  26; 6HR MAX TEMP:  31;

WORLAND        FAIR      23  15  71 SE9       29.64F WCI  13
6HR MIN TEMP:  20; 6HR MAX TEMP:  31;

SHERIDAN       FAIR      25  15  66 SE9       29.61F WCI  15
6HR MIN TEMP:  22; 6HR MAX TEMP:  30;

BUFFALO        FAIR      20   5  52 SW3       29.60F
6HR MIN TEMP:  18; 6HR MAX TEMP:  24;

GILLETTE       FAIR      22  12  65 SW13      29.64F WCI  10
6HR MIN TEMP:  22; 6HR MAX TEMP:  30;

HULETT         FAIR      27  12  54 S6        29.68F WCI  20
NEWCASTLE      FAIR      19  12  73 SE10      29.73F WCI   8

$$
WYZ014>020-022>026-101>103-270700-
CENTRAL WYOMING

CITY           SKY/WX    TMP DP  RH WIND       PRES   REMARKS
BIG PINEY      LGT SNOW   7   3  84 CALM      29.66F
6HR MIN TEMP:  -2; 6HR MAX TEMP:  11; 6HR PCP: TRACE;

PINEDALE       CLOUDY     9   1  72 E5        29.66F WCI   0
DUBOIS         CLOUDY    14   5  67 N15       29.55F WCI  -1
LANDER         FAIR      13  -1  54 SW3       29.62F
6HR MIN TEMP:   9; 6HR MAX TEMP:  21;

RIVERTON       FAIR       8   1  73 CALM      29.63F
6HR MIN TEMP:   4; 6HR MAX TEMP:  22;

CASPER         FAIR      22   7  52 SW26G37   29.65F WCI   5
6HR MIN TEMP:  16; 6HR MAX TEMP:  23;

DOUGLAS        FAIR      20   2  45 SE6       29.70F WCI  12
6HR MIN TEMP:  14; 6HR MAX TEMP:  24;


$$
WYZ021-027>030-104>119-270700-
SOUTHERN WYOMING

CITY           SKY/WX    TMP DP  RH WIND       PRES   REMARKS
EVANSTON       LGT SNOW  21  15  78 SW5       29.61F WCI  15
6HR MIN TEMP:  18; 6HR MAX TEMP:  23; 6HR PCP: TRACE;

FORT BRIDGER   CLOUDY    19   4  53 SE3       29.66F
ROCK SPRINGS   CLOUDY    16   4  59 S5        29.66F WCI   9
6HR MIN TEMP:  12; 6HR MAX TEMP:  20;

DIXON            N/A     26   8  47 S10G16    29.75F WCI  16
RAWLINS        FAIR      10   1  67 CALM      29.68F
6HR MIN TEMP:   6; 6HR MAX TEMP:  20;

SARATOGA       FAIR      21   7  53 SE9G16    29.69F WCI  11
LARAMIE        FAIR      19   2  47 SW17      29.68F WCI   4
6HR MIN TEMP:  16; 6HR MAX TEMP:  23;

CHEYENNE       FAIR      12   4  70 SW5       29.73F WCI   4
6HR MIN TEMP:  10; 6HR MAX TEMP:  27;

TORRINGTON     FAIR      12   4  70 SE7       29.77F WCI   1
6HR MIN TEMP:   7; 6HR MAX TEMP:  27;

PINE BLUFFS    FAIR      21  12  68 S6        29.78F WCI  14

$$




USA.gov is the U.S. government's official web portal to all federal, state and local government web resources and services.